SEJ463 VAAH-VOHS

Flight info

Callsign SEJ463
Flight time N/A
Altitude 37000
Route QQZ1A QQZ DCT ANGUP DCT PUNOR DCT AAU DCT SUSMA NAMSA8
Aircraft B738/M-SDE2E3FGHIRWXY/LB1

Departure

Time 2026-04-25 06:58
Airport Sardar Vallabh Patel International Airport (VAAH)

Arrival

Time N/A
Airport Rajiv Gandhi International Airport (VOHS)
Time Latitude Longitude Altitude Speed Heading
2026-04-25 06:41 23.07528 72.62610 185 ft 0 kts 316°
2026-04-25 06:48 23.07515 72.62623 202 ft 4 kts 318°
2026-04-25 06:48 23.07495 72.62642 200 ft 4 kts 316°
2026-04-25 06:48 23.07475 72.62659 196 ft 4 kts 348°
2026-04-25 06:48 23.07452 72.62655 194 ft 4 kts 41°
2026-04-25 06:49 23.07444 72.62646 199 ft 1 kts 46°
2026-04-25 06:49 23.07443 72.62645 199 ft 0 kts 46°
2026-04-25 06:51 23.07447 72.62650 197 ft 2 kts 46°
2026-04-25 06:51 23.07466 72.62672 194 ft 6 kts 46°
2026-04-25 06:51 23.07504 72.62715 190 ft 10 kts 46°
2026-04-25 06:51 23.07535 72.62782 196 ft 11 kts 115°
2026-04-25 06:52 23.07485 72.62844 189 ft 11 kts 135°
2026-04-25 06:52 23.07458 72.62912 194 ft 10 kts 71°
2026-04-25 06:52 23.07509 72.62966 199 ft 10 kts 43°
2026-04-25 06:52 23.07559 72.63019 191 ft 10 kts 46°
2026-04-25 06:53 23.07608 72.63071 196 ft 10 kts 44°
2026-04-25 06:53 23.07654 72.63123 198 ft 9 kts 53°
2026-04-25 06:53 23.07680 72.63203 197 ft 15 kts 77°
2026-04-25 06:53 23.07711 72.63343 200 ft 23 kts 77°
2026-04-25 06:54 23.07781 72.63509 200 ft 26 kts 46°
2026-04-25 06:54 23.07918 72.63654 190 ft 28 kts 44°
2026-04-25 06:54 23.08056 72.63799 201 ft 27 kts 44°
2026-04-25 06:54 23.08181 72.63936 205 ft 25 kts 44°
2026-04-25 06:55 23.08300 72.64063 201 ft 23 kts 44°
2026-04-25 06:55 23.08419 72.64192 200 ft 24 kts 44°
2026-04-25 06:55 23.08540 72.64319 200 ft 25 kts 45°
2026-04-25 06:55 23.08672 72.64462 192 ft 28 kts 44°
2026-04-25 06:56 23.08781 72.64573 196 ft 10 kts 29°
2026-04-25 06:56 23.08844 72.64598 187 ft 10 kts 44°
2026-04-25 06:56 23.08813 72.64614 189 ft 10 kts 225°
2026-04-25 06:56 23.08781 72.64578 197 ft 0 kts 224°
2026-04-25 06:57 23.08750 72.64545 194 ft 28 kts 224°
2026-04-25 06:57 23.08434 72.64207 203 ft 98 kts 224°
2026-04-25 06:57 23.07799 72.63526 195 ft 156 kts 224°
2026-04-25 06:58 23.06935 72.62605 420 ft 187 kts 225°
2026-04-25 06:58 23.05975 72.61605 1057 ft 193 kts 223°
2026-04-25 06:58 23.04841 72.60883 1816 ft 195 kts 200°
2026-04-25 06:58 23.03412 72.60674 2233 ft 223 kts 178°
2026-04-25 06:59 23.01833 72.61123 2476 ft 247 kts 153°
2026-04-25 06:59 23.00406 72.62231 2897 ft 262 kts 142°
2026-04-25 06:59 22.98940 72.63545 3314 ft 279 kts 141°
2026-04-25 06:59 22.97471 72.64882 4323 ft 273 kts 140°
2026-04-25 07:00 22.96027 72.66197 5298 ft 270 kts 141°
2026-04-25 07:00 22.94572 72.67522 6063 ft 276 kts 140°
2026-04-25 07:00 22.93092 72.68867 6871 ft 278 kts 140°
2026-04-25 07:00 22.91603 72.70216 7682 ft 280 kts 140°
2026-04-25 07:01 22.90107 72.71570 8364 ft 287 kts 140°
2026-04-25 07:01 22.88565 72.72964 9142 ft 291 kts 140°
2026-04-25 07:01 22.86982 72.74394 9914 ft 295 kts 140°
2026-04-25 07:01 22.85392 72.75829 10386 ft 310 kts 141°
2026-04-25 07:02 22.83661 72.77391 10567 ft 334 kts 140°
2026-04-25 07:02 22.81838 72.79034 11036 ft 345 kts 140°
2026-04-25 07:02 22.79981 72.80709 11707 ft 349 kts 141°
2026-04-25 07:02 22.78102 72.82403 12353 ft 354 kts 141°
2026-04-25 07:03 22.76193 72.84122 12983 ft 359 kts 141°
2026-04-25 07:03 22.74260 72.85863 13722 ft 361 kts 141°
2026-04-25 07:03 22.72324 72.87605 14377 ft 363 kts 141°
2026-04-25 07:03 22.70374 72.89360 14981 ft 367 kts 141°
2026-04-25 07:04 22.68428 72.91111 15585 ft 370 kts 140°
2026-04-25 07:04 22.66435 72.92902 16187 ft 374 kts 140°
2026-04-25 07:04 22.64427 72.94707 16792 ft 377 kts 140°
2026-04-25 07:04 22.62397 72.96532 17351 ft 382 kts 140°
2026-04-25 07:05 22.60333 72.98385 17921 ft 386 kts 140°
2026-04-25 07:05 22.58266 73.00241 18478 ft 389 kts 140°
2026-04-25 07:05 22.56173 73.02118 19031 ft 390 kts 140°
2026-04-25 07:05 22.54077 73.04000 19565 ft 393 kts 140°
2026-04-25 07:06 22.51959 73.05898 20050 ft 397 kts 140°
2026-04-25 07:06 22.49827 73.07809 20576 ft 399 kts 140°
2026-04-25 07:06 22.47681 73.09732 21105 ft 402 kts 140°
2026-04-25 07:06 22.45518 73.11670 21634 ft 404 kts 140°
2026-04-25 07:07 22.43339 73.13620 22148 ft 407 kts 139°
2026-04-25 07:07 22.41180 73.15553 22641 ft 410 kts 139°
2026-04-25 07:07 22.39013 73.17491 23113 ft 413 kts 139°
2026-04-25 07:07 22.36790 73.19480 23561 ft 416 kts 139°
2026-04-25 07:08 22.34549 73.21482 23966 ft 419 kts 139°
2026-04-25 07:08 22.32333 73.23523 24391 ft 420 kts 136°
2026-04-25 07:08 22.30188 73.25681 24804 ft 422 kts 135°
2026-04-25 07:08 22.28068 73.27902 25215 ft 424 kts 134°
2026-04-25 07:09 22.25963 73.30135 25621 ft 426 kts 134°
2026-04-25 07:09 22.23840 73.32385 26020 ft 428 kts 134°
2026-04-25 07:09 22.21704 73.34637 26423 ft 430 kts 134°
2026-04-25 07:09 22.19554 73.36891 26823 ft 432 kts 134°
2026-04-25 07:10 22.17419 73.39120 27198 ft 434 kts 134°
2026-04-25 07:10 22.15237 73.41392 27566 ft 436 kts 134°
2026-04-25 07:10 22.13045 73.43668 27936 ft 438 kts 134°
2026-04-25 07:10 22.10840 73.45956 28301 ft 440 kts 134°
2026-04-25 07:11 22.08632 73.48247 28660 ft 442 kts 134°
2026-04-25 07:11 22.06409 73.50551 29005 ft 444 kts 134°
2026-04-25 07:11 22.04170 73.52871 29348 ft 446 kts 134°
2026-04-25 07:11 22.01920 73.55202 29676 ft 448 kts 134°
2026-04-25 07:12 21.99693 73.57508 29997 ft 450 kts 134°
2026-04-25 07:12 21.95153 73.62206 30521 ft 454 kts 134°
2026-04-25 07:12 21.92867 73.64570 30770 ft 457 kts 135°
2026-04-25 07:13 21.90569 73.66945 31017 ft 459 kts 136°
2026-04-25 07:13 21.88262 73.69328 31364 ft 458 kts 136°
2026-04-25 07:13 21.85967 73.71698 31751 ft 456 kts 136°
2026-04-25 07:13 21.83680 73.74058 32116 ft 455 kts 136°
2026-04-25 07:14 21.81389 73.76421 32392 ft 456 kts 136°
2026-04-25 07:14 21.79097 73.78784 32663 ft 457 kts 137°
2026-04-25 07:14 21.76799 73.81153 33015 ft 456 kts 137°
2026-04-25 07:14 21.74513 73.83509 33369 ft 455 kts 137°
2026-04-25 07:15 21.72224 73.85867 33692 ft 455 kts 137°
2026-04-25 07:15 21.69970 73.88186 33950 ft 455 kts 137°
2026-04-25 07:15 21.67671 73.90551 34186 ft 456 kts 137°
2026-04-25 07:15 21.65377 73.92911 34428 ft 456 kts 139°
2026-04-25 07:16 21.63081 73.95271 34627 ft 457 kts 139°
2026-04-25 07:16 21.60774 73.97641 34855 ft 458 kts 139°
2026-04-25 07:16 21.58479 73.99999 35109 ft 457 kts 139°
2026-04-25 07:16 21.56178 74.02361 35362 ft 457 kts 140°
2026-04-25 07:17 21.54654 74.03925 35526 ft 457 kts 140°
2026-04-25 07:17 21.51606 74.07051 35825 ft 457 kts 140°
2026-04-25 07:17 21.49302 74.09413 36062 ft 457 kts 140°
2026-04-25 07:17 21.47001 74.11771 36292 ft 456 kts 140°
2026-04-25 07:18 21.44700 74.14127 36510 ft 457 kts 140°
2026-04-25 07:18 21.42404 74.16478 36721 ft 457 kts 140°
2026-04-25 07:18 21.40877 74.18041 36865 ft 457 kts 140°
2026-04-25 07:18 21.38576 74.20396 36922 ft 460 kts 140°
2026-04-25 07:19 21.33939 74.25136 36929 ft 458 kts 140°
2026-04-25 07:19 21.29075 74.29407 36943 ft 451 kts 147°
2026-04-25 07:20 21.23985 74.33297 36937 ft 448 kts 148°
2026-04-25 07:20 21.18908 74.37181 36941 ft 446 kts 148°
2026-04-25 07:21 21.13884 74.41081 36941 ft 446 kts 148°
2026-04-25 07:21 21.08867 74.45001 36942 ft 446 kts 148°
2026-04-25 07:22 21.03844 74.48926 36949 ft 447 kts 148°
2026-04-25 07:22 20.98846 74.52827 36949 ft 448 kts 148°
2026-04-25 07:23 20.93790 74.56768 36956 ft 449 kts 148°
2026-04-25 07:23 20.88727 74.60711 36953 ft 451 kts 148°
2026-04-25 07:24 20.83649 74.64663 36953 ft 452 kts 148°
2026-04-25 07:24 20.78552 74.68627 36953 ft 453 kts 148°
2026-04-25 07:25 20.73455 74.72589 36948 ft 453 kts 149°
2026-04-25 07:25 20.68352 74.76551 36957 ft 453 kts 149°
2026-04-25 07:26 20.63286 74.80491 36954 ft 453 kts 149°
2026-04-25 07:26 20.58211 74.84465 36956 ft 452 kts 149°
2026-04-25 07:27 20.53138 74.88441 36953 ft 451 kts 149°
2026-04-25 07:27 20.48079 74.92399 36955 ft 451 kts 149°
2026-04-25 07:28 20.43028 74.96346 36956 ft 449 kts 150°
2026-04-25 07:28 20.37985 75.00282 36957 ft 449 kts 150°
2026-04-25 07:29 20.32983 75.04183 36960 ft 448 kts 150°
2026-04-25 07:29 20.27951 75.08104 36949 ft 448 kts 151°
2026-04-25 07:30 20.22925 75.12018 36957 ft 447 kts 151°
2026-04-25 07:30 20.17907 75.15922 36957 ft 447 kts 151°
2026-04-25 07:31 20.12880 75.19830 36955 ft 447 kts 151°
2026-04-25 07:31 20.07851 75.23735 36945 ft 447 kts 151°
2026-04-25 07:32 20.02826 75.27636 36942 ft 447 kts 151°
2026-04-25 07:32 19.97820 75.31519 36944 ft 448 kts 151°
2026-04-25 07:33 19.92787 75.35420 36949 ft 448 kts 151°
2026-04-25 07:33 19.87737 75.39330 36940 ft 450 kts 151°
2026-04-25 07:34 19.82996 75.43771 36942 ft 459 kts 142°
2026-04-25 07:34 19.78599 75.48691 36939 ft 459 kts 141°
2026-04-25 07:35 19.74207 75.53624 36934 ft 459 kts 141°
2026-04-25 07:35 19.69793 75.58511 36932 ft 458 kts 142°
2026-04-25 07:36 19.65387 75.63348 36923 ft 458 kts 142°
2026-04-25 07:36 19.60949 75.68208 36920 ft 458 kts 142°
2026-04-25 07:37 19.56514 75.73061 36915 ft 458 kts 142°
2026-04-25 07:37 19.52070 75.77921 36911 ft 458 kts 142°
2026-04-25 07:38 19.47669 75.82732 36917 ft 457 kts 142°
2026-04-25 07:38 19.43235 75.87574 36911 ft 456 kts 142°
2026-04-25 07:39 19.38802 75.92412 36912 ft 456 kts 142°
2026-04-25 07:39 19.34388 75.97224 36911 ft 455 kts 142°
2026-04-25 07:40 19.30003 76.02001 36913 ft 455 kts 142°
2026-04-25 07:40 19.25593 76.06801 36894 ft 454 kts 142°
2026-04-25 07:41 19.21186 76.11594 36906 ft 454 kts 142°
2026-04-25 07:41 19.16775 76.16387 36905 ft 453 kts 142°
2026-04-25 07:42 19.12379 76.21160 36921 ft 453 kts 142°
2026-04-25 07:42 19.07976 76.25937 36918 ft 453 kts 142°
2026-04-25 07:43 19.03576 76.30706 36918 ft 453 kts 142°
2026-04-25 07:43 18.99197 76.35449 36924 ft 454 kts 142°
2026-04-25 07:44 18.94773 76.40237 36902 ft 454 kts 142°
2026-04-25 07:44 18.90361 76.45008 36917 ft 454 kts 142°
2026-04-25 07:45 18.85974 76.49749 36928 ft 454 kts 142°
2026-04-25 07:45 18.81555 76.54521 36917 ft 454 kts 142°
2026-04-25 07:46 18.77142 76.59282 36929 ft 453 kts 142°
2026-04-25 07:46 18.72725 76.64044 36925 ft 453 kts 142°
2026-04-25 07:47 18.68322 76.68781 36435 ft 458 kts 142°
2026-04-25 07:47 18.66105 76.71171 36091 ft 452 kts 143°
2026-04-25 07:47 18.63920 76.73528 35668 ft 448 kts 142°
2026-04-25 07:48 18.61747 76.75869 35271 ft 444 kts 143°
2026-04-25 07:48 18.59593 76.78188 34866 ft 441 kts 143°
2026-04-25 07:48 18.57455 76.80487 34464 ft 437 kts 143°
2026-04-25 07:48 18.55333 76.82767 34058 ft 434 kts 143°
2026-04-25 07:49 18.53219 76.85036 33614 ft 432 kts 143°
2026-04-25 07:49 18.51121 76.87288 33194 ft 428 kts 143°
2026-04-25 07:49 18.49039 76.89523 32780 ft 425 kts 143°
2026-04-25 07:49 18.46979 76.91732 32380 ft 422 kts 143°
2026-04-25 07:50 18.44951 76.93907 31992 ft 419 kts 143°
2026-04-25 07:50 18.42915 76.96089 31604 ft 417 kts 143°
2026-04-25 07:50 18.40891 76.98257 31219 ft 414 kts 143°
2026-04-25 07:50 18.38872 77.00420 30844 ft 411 kts 143°
2026-04-25 07:51 18.36868 77.02565 30445 ft 410 kts 143°
2026-04-25 07:51 18.34872 77.04701 30075 ft 408 kts 143°
2026-04-25 07:51 18.32884 77.06827 29622 ft 407 kts 142°
2026-04-25 07:51 18.30904 77.08945 29211 ft 403 kts 142°
2026-04-25 07:52 18.28947 77.11040 28802 ft 400 kts 142°
2026-04-25 07:52 18.27002 77.13120 28410 ft 397 kts 142°
2026-04-25 07:52 18.25072 77.15183 28023 ft 394 kts 142°
2026-04-25 07:52 18.23152 77.17234 27643 ft 391 kts 141°
2026-04-25 07:53 18.21273 77.19240 27261 ft 388 kts 141°
2026-04-25 07:53 18.19385 77.21255 26883 ft 385 kts 141°
2026-04-25 07:53 18.17513 77.23253 26510 ft 382 kts 141°
2026-04-25 07:53 18.15650 77.25240 26139 ft 380 kts 141°
2026-04-25 07:54 18.13798 77.27215 25768 ft 377 kts 140°
2026-04-25 07:54 18.11957 77.29178 25398 ft 375 kts 140°
2026-04-25 07:54 18.10127 77.31128 25031 ft 373 kts 140°
2026-04-25 07:54 18.08311 77.33063 24663 ft 371 kts 140°
2026-04-25 07:55 18.06503 77.34989 24295 ft 369 kts 140°
2026-04-25 07:55 18.04726 77.36880 23923 ft 368 kts 139°
2026-04-25 07:55 18.02929 77.38793 23566 ft 366 kts 139°
2026-04-25 07:55 18.01143 77.40695 23135 ft 365 kts 139°
2026-04-25 07:56 17.99366 77.42586 22739 ft 362 kts 139°
2026-04-25 07:56 17.97603 77.44462 22360 ft 359 kts 139°
2026-04-25 07:56 17.95858 77.46317 21990 ft 356 kts 138°
2026-04-25 07:56 17.94116 77.48165 21627 ft 353 kts 139°
2026-04-25 07:57 17.92218 77.49767 21246 ft 347 kts 150°
2026-04-25 07:57 17.90117 77.50945 21017 ft 338 kts 161°
2026-04-25 07:57 17.87943 77.51782 20693 ft 335 kts 163°
2026-04-25 07:57 17.85746 77.52570 20355 ft 333 kts 163°
2026-04-25 07:58 17.83562 77.53346 20016 ft 331 kts 163°
2026-04-25 07:58 17.81382 77.54125 19677 ft 330 kts 163°
2026-04-25 07:58 17.79210 77.54909 19332 ft 329 kts 163°
2026-04-25 07:58 17.77042 77.55697 18973 ft 329 kts 163°
2026-04-25 07:59 17.74877 77.56486 18616 ft 329 kts 163°
2026-04-25 07:59 17.72706 77.57279 18276 ft 330 kts 163°
2026-04-25 07:59 17.70568 77.58061 17879 ft 329 kts 162°
2026-04-25 07:59 17.68408 77.58851 17521 ft 328 kts 162°
2026-04-25 08:00 17.66260 77.59638 17180 ft 326 kts 162°
2026-04-25 08:00 17.64128 77.60418 16844 ft 324 kts 161°
2026-04-25 08:00 17.62002 77.61196 16505 ft 322 kts 161°
2026-04-25 08:00 17.59894 77.61966 16176 ft 320 kts 160°
2026-04-25 08:01 17.57800 77.62736 15894 ft 317 kts 160°
2026-04-25 08:01 17.55741 77.63511 15635 ft 313 kts 159°
2026-04-25 08:01 17.53702 77.64283 15328 ft 311 kts 159°
2026-04-25 08:01 17.51676 77.65052 15026 ft 309 kts 158°
2026-04-25 08:02 17.49658 77.65816 14704 ft 308 kts 158°
2026-04-25 08:02 17.47643 77.66578 14392 ft 307 kts 158°
2026-04-25 08:02 17.45661 77.67327 14078 ft 306 kts 158°
2026-04-25 08:02 17.43660 77.68083 13744 ft 306 kts 157°
2026-04-25 08:03 17.41656 77.68840 13399 ft 305 kts 157°
2026-04-25 08:03 17.39662 77.69592 13050 ft 304 kts 158°
2026-04-25 08:03 17.37677 77.70341 12723 ft 303 kts 158°
2026-04-25 08:03 17.35700 77.71086 12400 ft 302 kts 158°
2026-04-25 08:04 17.33731 77.71829 12090 ft 300 kts 158°
2026-04-25 08:04 17.31764 77.72571 11779 ft 299 kts 158°
2026-04-25 08:04 17.29836 77.73297 11485 ft 297 kts 158°
2026-04-25 08:04 17.28024 77.74191 11160 ft 294 kts 140°
2026-04-25 08:05 17.26741 77.75803 10877 ft 288 kts 116°
2026-04-25 08:05 17.26153 77.77778 10577 ft 285 kts 97°
2026-04-25 08:05 17.25954 77.79834 10276 ft 284 kts 94°
2026-04-25 08:05 17.25799 77.81867 10123 ft 277 kts 94°
2026-04-25 08:06 17.25652 77.83862 9969 ft 271 kts 94°
2026-04-25 08:06 17.25505 77.85828 9675 ft 271 kts 94°
2026-04-25 08:06 17.25354 77.87786 9390 ft 270 kts 94°
2026-04-25 08:06 17.25199 77.89743 9105 ft 269 kts 94°
2026-04-25 08:07 17.25042 77.91698 8832 ft 269 kts 94°
2026-04-25 08:07 17.24884 77.93648 8542 ft 269 kts 94°
2026-04-25 08:07 17.24779 77.94939 8358 ft 269 kts 94°
2026-04-25 08:07 17.24619 77.96890 8076 ft 269 kts 94°
2026-04-25 08:08 17.24458 77.98834 7789 ft 268 kts 94°
2026-04-25 08:08 17.24245 78.01407 7421 ft 268 kts 94°
2026-04-25 08:08 17.24136 78.02720 7229 ft 267 kts 94°
2026-04-25 08:08 17.23975 78.04656 6963 ft 267 kts 94°
2026-04-25 08:09 17.23814 78.06586 6689 ft 266 kts 94°
2026-04-25 08:09 17.23655 78.08489 6415 ft 266 kts 94°